COSMOS 2251 DEB, 34468

Orbit data source: Space-Track

COSMOS 2251 DEB, 34468 is space debris in LEO originally from a launch on Wed, 16 Jun 1993 UTC launched from the Plesetsk Missile And Space Complex (PKMTR). The debris from Iridium 33, an American commercial communications satellite, has been tracked extensively since its accidental collision with the defunct Russian satellite Cosmos 2251 in 2009. This event, occurring at high speed in low Earth orbit (LEO), generated thousands of pieces of space debris, significantly increasing the risk of further collisions. The Iridium 33 debris cloud has impacted space traffic management and orbital debris mitigation strategies, making it a subject of ongoing study in space situational awareness.

Loading next visibility...
Identifier
34468, 1993-036TM
Orbit
LEO
Country
Flag of CISCIS
Related business
Manufacturer
Unknown
Mission
Spacecraft
Bus & Motor
Unknown
Mass
Unknown
Launch date (UTC)
1993-06-16 (33 years ago)
Launch vehicle
Unknown
Launch site
Plesetsk Missile And Space Complex (PKMTR)
Object type
Payload
Rocket body
Debris
Shape & HBR
Unknown shape, 0.1 m
Radar Cross Section
Small (<0.1 m²)

Expand to show TLE details & history
Last TLE update: 12 hours ago

TLE from 12 hours ago
0 COSMOS 2251 DEB
1 34468U 93036TM  26034.09003537  .00000879  00000-0  23715-3 0  9993
2 34468  74.0130  19.1118 0074394 152.3888 208.1254 14.47773552892191
Epoch: 2026-02-03T02:09Z
TLE epoch observation values (Epoch: 2026-02-03T02:09:39.055Z)
Latitude
-0.00005°
Longitude
-146.57691°
Altitude
782.304 km
Speed
7.438 km/s
True Right ascension
01h 16m 26s
True Declination
0° 00' 00"
Sunlit
Object was in daylight at epoch
Visualization orbit readout
Latitude
Unknown
Longitude
Unknown
Altitude
Unknown
Speed
Unknown
Apparent Right ascension
Unknown
Apparent Declination
Unknown
Sunlit
N/A
Visualization observer readout
Local Sidereal Time
16:33:35
Azimuth
Unknown
Elevation
Unknown
Doppler factor
Unknown
Orbital elements
Apogee altitude
783.427 km
Perigee altitude
677.658 km
Semi-major axis
7,108.679 km
Eccentricity
0.00744
Inclination
74.013°
RAAN
19.1118°
Arg. of periapsis
152.3888°
True anomaly
207.72681°
Mean anomaly
208.1254°
Eccentric anomaly
207.92578°
Mean motion
3.62126 °/min
Orbital period
99.41 mins
BSTAR
0.00023715
Loading maneuver chart data...
Computing Atmospheric mass density...
Loading historical data...
Loading historical data...
Loading historical data...
Loading historical data...
Loading historical data...
Loading historical data...
Loading historical data...

Documentation

Showing up to 5 results
|